Weather Roundup
Issued by NWS

Home | Current Version | Previous Version | Text Only | Print | Product List | Glossary On
Versions: 1 2 3 4 5 6 7 8 9 10 11 12 13 14 15 16 17 18 19 20 21 22 23 24 25 26 27 28 29 30 31 32 33 34 35 36 37 38 39 40 41 42 43 44 45 46 47 48 49 50
000
NZUS93 KARX 171959
HRRWXR

CURRENT HOURLY OBSERVATIONS ACROSS
MUCH OF THE UPPER MISSISSIPPI VALLEY
NATIONAL WEATHER SERVICE LA CROSSE WI
200 PM CST WED DEC 17 2014


...SOUTHEAST MINNESOTA...


CITY           SKY/WX    TMP DP  RH WIND       PRES   REMARKS
ROCHESTER      MOSUNNY   19  13  77 NW12      30.24F WCI   7
ROCHESTER/MAYO FAIR      20  11  69 W9        30.25F WCI   9
WINONA         MOSUNNY   21  14  73 N8        30.29S WCI  12
AUSTIN         SUNNY     19  14  79 NW9       30.25F WCI   9
ALBERT LEA     SUNNY     21  16  79 NW7       30.25F WCI  13
DODGE CENTER   MOSUNNY   18  16  93 N10       30.24S WCI   6
PRESTON        MOSUNNY   19  13  78 NW9       30.25S WCI   8
OWATONNA       MOSUNNY   19  12  73 NW8       30.26S WCI   9
FARIBAULT      SUNNY     19  12  73 NW7       30.27F WCI  10
$$

...ELSEWHERE IN MINNESOTA...


CITY           SKY/WX    TMP DP  RH WIND       PRES   REMARKS
MINNEAPOLIS    MOSUNNY   19  10  68 N8        30.29F WCI   9
INTNL FALLS    SUNNY     19   6  57 NE7       30.29F WCI  10
DULUTH         MOSUNNY   19  10  68 N6        30.23R WCI  11
RED WING       LGT SNOW  19  10  68 N7        30.29S WCI  10
REDWOOD FALLS  SUNNY     19  11  70 NW9       30.29F WCI   8
MANKATO        SUNNY     19  10  68 NW7       30.28S WCI  10
WORTHINGTON    SUNNY     18  12  79 N5        30.25F WCI  11
FAIRMONT       SUNNY     19  10  68 N7        30.27F WCI  10
$$

...SOUTHWEST WISCONSIN...


CITY           SKY/WX    TMP DP  RH WIND       PRES   REMARKS
LA CROSSE      SUNNY     24  12  60 NW10      30.28R WCI  14
PRAIRIE DU CHI PTSUNNY   23  12  63 W5        30.28R WCI  17
BOSCOBEL       CLOUDY    24  14  65 W3        30.27S
LONE ROCK      NOT AVBL
PLATTEVILLE    CLOUDY    22  16  78 W3        30.24S
FORT MC COY    CLOUDY    21  13  70 NW9       30.26S WCI  11
VIROQUA        CLOUDY    22  15  75 W8        30.22R WCI  13
WIS DELLS      NOT AVBL
$$

...ELSEWHERE IN WISCONSIN...


CITY           SKY/WX    TMP DP  RH WIND       PRES   REMARKS
MILWAUKEE      PTSUNNY   27  15  61 W13       30.18F WCI  16
MADISON        CLOUDY    24  15  68 W7        30.21R WCI  16
GREEN BAY      PTSUNNY   26  17  68 W16       30.15S WCI  14
EAU CLAIRE     NOT AVBL
BLACK RVR FLS  FLURRIES  20  13  72 NW7       30.26R WCI  12
MEDFORD        MOSUNNY   19  10  68 W12       30.18R WCI   6
WAUSAU         MOSUNNY   22  12  65 NW10      30.16S WCI  11
WIS RAPIDS     CLOUDY    21  12  68 NW16      30.22R WCI   7
MARSHFIELD     MOSUNNY   20  13  74 W14       30.20R WCI   7
RICE LAKE      CLOUDY    18  10  69 NW6       30.28S WCI  10
$$

...NORTHEAST IOWA...


CITY           SKY/WX    TMP DP  RH WIND       PRES   REMARKS
DECORAH        PTSUNNY   21  12  68 W6        30.25R WCI  14
MASON CITY     SUNNY     21  14  74 N13       30.26F WCI   9
CHARLES CITY   MOSUNNY   21  16  79 NW12      30.26F WCI   9
OELWEIN        MOSUNNY   23  14  68 NW10      30.25F WCI  12
$$

...ELSEWHERE IN IOWA...


CITY           SKY/WX    TMP DP  RH WIND       PRES   REMARKS
DES MOINES     PTSUNNY   28  13  53 VRB6      30.28F WCI  22
IOWA CITY      SUNNY     27  15  61 NW13      30.28F WCI  16
FORT DODGE     SUNNY     25  14  63 NW3       30.28F
$$

...NORTHERN ILLINOIS...


CITY           SKY/WX    TMP DP  RH WIND       PRES   REMARKS
CHICAGO-OHARE  CLOUDY    26  17  68 NW13      30.20F WCI  15
CHICAGO-MIDWAY CLOUDY    28  18  66 NW13      30.21F WCI  17
MOLINE         SUNNY     28  16  60 NW10      30.25F WCI  19
ROCKFORD       CLOUDY    25  16  68 NW13      30.25R WCI  14
PEORIA         PTSUNNY   28  18  66 W7        30.27F WCI  21
$$

NOTE: "FAIR" INDICATES FEW OR NO CLOUDS BELOW 12,000 FEET WITH NO
SIGNIFICANT WEATHER AND/OR OBSTRUCTIONS TO VISIBILITY. WIND
SPEEDS ARE IN MILES-PER-HOUR.



USA.gov is the U.S. government's official web portal to all federal, state and local government web resources and services.